This is the latest recevied weather packets stored in our database for station/object 9W2JBV-1. If no packets are shown the sender has not sent any weather packets the latest 10 day(s).
| Time | Temp. | Humidity | Pressure | Rain* | Wind** | Luminosity | Snow |
|---|---|---|---|---|---|---|---|
| 1777600964 | 33.33° C | 59% | 1018.2 hPa | - | - | - | - |
| 1777584161 | 32.22° C | 61% | 1016.4 hPa | - | - | - | - |
| 1777581761 | 32.22° C | 61% | 1016.1 hPa | - | - | - | - |
| 1777580561 | 32.22° C | 61% | 1016.2 hPa | - | - | - | - |
| 1777576960 | 32.22° C | 60% | 1016.6 hPa | - | - | - | - |
| 1777566163 | 32.78° C | 60% | 1018.3 hPa | - | - | - | - |
| 1777554161 | 32.78° C | 58% | 1017.1 hPa | - | - | - | - |
| 1777544560 | 32.78° C | 57% | 1014.9 hPa | - | - | - | - |
| 1777541112 | 33.33° C | 56% | 1015 hPa | - | - | - | - |
| 1777540960 | 33.33° C | 56% | 1015 hPa | - | - | - | - |
| 1777539760 | 33.33° C | 57% | 1014.6 hPa | - | - | - | - |
| 1777534959 | 34.44° C | 55% | 1014.7 hPa | - | - | - | - |
| 1777533759 | 33.89° C | 54% | 1014.9 hPa | - | - | - | - |
| 1777532631 | 34.44° C | 53% | 1014.8 hPa | - | - | - | - |
| 1777532593 | 34.44° C | 53% | 1014.8 hPa | - | - | - | - |
| 1777532559 | 34.44° C | 53% | 1014.8 hPa | - | - | - | - |
| 1777531714 | 35° C | 53% | 1015.3 hPa | - | - | - | - |
| 1777531359 | 35° C | 53% | 1015.3 hPa | - | - | - | - |
| 1777530159 | 35° C | 50% | 1015.4 hPa | - | - | - | - |
| 1777527761 | 34.44° C | 51% | 1016.1 hPa | - | - | - | - |
| 1777526561 | 34.44° C | 51% | 1016.5 hPa | - | - | - | - |
| 1777525361 | 34.44° C | 52% | 1016.8 hPa | - | - | - | - |
| 1777524160 | 34.44° C | 52% | 1017.2 hPa | - | - | - | - |
| 1777522960 | 34.44° C | 53% | 1017.4 hPa | - | - | - | - |
| 1777521760 | 33.89° C | 53% | 1017.6 hPa | - | - | - | - |
* Rain since midnight (hover to see other rain measurements)
** Current wind speed in m/s (hover to see current wind gust speed)